[[{"header":{"parameterUnit":"m.s-1","parameterCategory":1,"la1":30.2991,"la2":30.254,"lo1":-89.0895,"lo2":-89.0444,"dy":0.0017,"dx":0.0017,"nx":28,"ny":28,"refTime":"2023-10-18T03:00:00:Z","depth":0,"parameterNumber":2,"parameterNumberName":"U-component_of_WINDS"},"data":[0,0,0,0,0,0,0,0,0,0,0,0,0,0,0,0,0,0,0,0,0,0,0,0,0,0,0,0,0,0,0,0,0,0,0,0,0,0,0,0,0,0,0,0,0,0,0,0,0,0,0,0,0,0,0,0,0,0,0.1164,0.1165,0,0.1235,0.1236,0.1237,0.1286,0.1286,0.1287,0.1287,0.1362,0.1363,0.1365,0,0,0,0,0,0,0,0,0,0,0,0,0,0.1074,0.1076,0.1164,0.1165,0.1166,0.1235,0.1236,0.1237,0.1286,0.1286,0.1287,0.1287,0.1361,0.1363,0.1365,0,0,0,0,0,0,0,0,0,0,0,0,0,0.1126,0.1076,0.1164,0.1199,0.1202,0.1235,0.1236,0.1238,0.1286,0.1286,0.1287,0.1287,0.1361,0.1363,0.1366,0.137,0,0,0.1373,0.1374,0,0,0,0,0,0,0,0,0.1123,0.1129,0.1193,0.1196,0.1201,0.1252,0.1232,0.1282,0.1286,0.1254,0.1287,0.1287,0.1325,0.1331,0.1343,0.1374,0.1377,0.1373,0.1375,0.1376,0.1377,0,0,0,0,0,0,0,0.1119,0.1127,0.1193,0.1193,0.1198,0.1212,0.122,0.1242,0.1286,0.1257,0.1261,0.1268,0.1327,0.134,0.1345,0.1378,0.1373,0.1376,0.1377,0.1378,0.142,0.142,0,0,0,0,0,0,0.111,0.1123,0.119,0.1195,0.1162,0.1213,0.1222,0.1235,0.1286,0.1294,0.1268,0.127,0.1336,0.1342,0.1348,0.1359,0.1376,0.1378,0.138,0.1421,0.142,0.142,0,0,0,0,0,0,0.1108,0.1115,0.1187,0.116,0.117,0.1214,0.1229,0.1236,0.1249,0.1294,0.1302,0.1272,0.1336,0.1344,0.1365,0.1362,0.1379,0.1382,0.1421,0.142,0.142,0.1379,0,0,0,0,0,0,0.1105,0.1114,0.1116,0.116,0.1171,0.1202,0.1228,0.1237,0.1253,0.1257,0.1301,0.1308,0.1337,0.1361,0.1367,0.1366,0.1384,0.1421,0.1421,0.142,0.1381,0.1377,0.1374,0,0,0,0,0,0.1102,0.1101,0.1115,0.1123,0.1174,0.1202,0.1209,0.1241,0.1253,0.1255,0.1284,0.1307,0.1361,0.1363,0.137,0.1369,0.1422,0.1421,0.142,0.1382,0.1378,0.1374,0,0,0,0,0,0,0.1056,0.1107,0.1124,0.1137,0.1165,0.121,0.1214,0.1235,0.126,0.1263,0.1304,0.1313,0.133,0.1352,0.1353,0.1378,0.1394,0.1395,0.1363,0.1359,0.1356,0.135,0.1386,0,0,0,0,0,0.1047,0.1064,0.1109,0.1117,0.113,0.1169,0.1183,0.1206,0.1236,0.1248,0.1279,0.1308,0.1332,0.1347,0.1371,0.1384,0.1396,0.1388,0.1384,0.1381,0.1381,0.1392,0.139,0.1417,0.1417,0.1417,0,0,0.1029,0.106,0.1068,0.1108,0.1132,0.1151,0.1179,0.1196,0.1211,0.1251,0.1273,0.1296,0.1332,0.1349,0.1359,0.1368,0.1377,0.138,0.1377,0.1379,0.1391,0.1389,0.1386,0.1416,0.1416,0.1416,0,0,0.1007,0.1031,0.1041,0.1065,0.1101,0.1128,0.113,0.1172,0.119,0.1212,0.1243,0.1262,0.1301,0.1326,0.1344,0.1334,0.1356,0.1341,0.1323,0.1333,0.1331,0.1329,0.1327,0.1326,0.1341,0.134,0.134,0,0.098,0.1009,0.1043,0.106,0.1078,0.1115,0.1127,0.1148,0.119,0.1202,0.1212,0.1265,0.1291,0.1316,0.1314,0.1326,0.1332,0.1336,0.1328,0.1327,0.1326,0.1324,0.1323,0.1338,0.1339,0.1339,0.1339,0,0.0976,0.0995,0.0999,0.1039,0.1057,0.1071,0.1109,0.1124,0.1146,0.1172,0.1196,0.1229,0.1262,0.127,0.1291,0.1299,0.1304,0.132,0.1338,0.1321,0.132,0.132,0.1335,0.1336,0.1337,0.1337,0,0,0.0925,0.0985,0.0986,0.1006,0.105,0.1066,0.1083,0.1114,0.1127,0.1156,0.1172,0.1206,0.1222,0.1242,0.1267,0.1276,0.1269,0.1292,0.1294,0.1288,0.1281,0.1269,0.1267,0.1284,0.1284,0.1284,0.1279,0,0.091,0.0941,0.0974,0.0994,0.1013,0.105,0.1065,0.1094,0.112,0.1141,0.117,0.1194,0.1213,0.1226,0.1236,0.1267,0.1268,0.1268,0.1301,0.1302,0.1291,0.1267,0.1254,0.1247,0.1278,0.1278,0.1278,0,0.0896,0.0923,0.0945,0.0989,0.0998,0.1011,0.1044,0.1064,0.1099,0.1117,0.1141,0.1168,0.1189,0.1204,0.1236,0.1235,0.1251,0.1268,0.1269,0.1274,0.1289,0.1272,0.1245,0.1244,0.1278,0.1278,0.1278,0,0.0858,0.09,0.0919,0.0935,0.0986,0.0995,0.1017,0.1052,0.107,0.11,0.1112,0.1144,0.1161,0.1186,0.1222,0.1229,0.125,0.1268,0.1267,0.1267,0.127,0.127,0.1246,0.1279,0.1279,0.1279,0.1279,0,0.0838,0.085,0.0904,0.0915,0.0931,0.097,0.0985,0.1011,0.1042,0.1061,0.1095,0.1112,0.1158,0.1181,0.1209,0.1232,0.124,0.1256,0.1264,0.1254,0.1252,0.1265,0.1267,0.1279,0.1279,0.1279,0.1279,0,0.0798,0.0834,0.0858,0.0905,0.0918,0.0927,0.0969,0.0983,0.1011,0.1034,0.1042,0.1087,0.1116,0.1154,0.1195,0.1215,0.1235,0.1246,0.1223,0.1227,0.1225,0.1225,0.121,0.1211,0.1242,0.1241,0.1241,0,0.0783,0.0794,0.0843,0.0858,0.0879,0.0902,0.0921,0.096,0.0979,0.1021,0.103,0.1062,0.109,0.1135,0.1172,0.1205,0.1218,0.121,0.1223,0.1213,0.1219,0.1218,0.1221,0.1207,0.1206,0.1206,0.1206,0,0.0754,0.0772,0.0797,0.0829,0.085,0.0878,0.0906,0.0917,0.0963,0.0982,0.1013,0.1034,0.1077,0.1109,0.1147,0.1171,0.1197,0.1202,0.1204,0.1193,0.118,0.1189,0.1215,0.1202,0.1202,0.1202,0.1203,0.1203,0.0727,0.0739,0.0776,0.0803,0.083,0.0856,0.0872,0.0903,0.0929,0.0966,0.0989,0.1019,0.1056,0.111,0.1133,0.1159,0.1168,0.1171,0.1171,0.1172,0.1169,0.1176,0.1166,0.1166,0.1166,0.1166,0.1166,0,0.07,0.0726,0.0751,0.0791,0.0813,0.0835,0.0869,0.0887,0.0912,0.0945,0.0972,0.1008,0.104,0.108,0.1115,0.1128,0.1141,0.1136,0.1136,0.1141,0.1158,0.1153,0.1125,0.1125,0.1125,0.1125,0.1125,0.1125,0.0688,0.071,0.0733,0.0769,0.0796,0.0825,0.0843,0.0869,0.0895,0.0934,0.096,0.0986,0.1023,0.1061,0.1092,0.1103,0.1115,0.1107,0.1122,0.1136,0.114,0.1143,0.1139,0.1109,0.1109,0.1104,0.1104,0.1104]},{"header":{"parameterUnit":"m.s-1","parameterCategory":1,"la1":30.2991,"la2":30.254,"lo1":-89.0895,"lo2":-89.0444,"dy":0.0017,"dx":0.0017,"nx":28,"ny":28,"refTime":"2023-10-18T03:00:00:Z","depth":0,"parameterNumber":3,"parameterNumberName":"V-component_of_WINDS"},"data":[0,0,0,0,0,0,0,0,0,0,0,0,0,0,0,0,0,0,0,0,0,0,0,0,0,0,0,0,0,0,0,0,0,0,0,0,0,0,0,0,0,0,0,0,0,0,0,0,0,0,0,0,0,0,0,0,0,0,1.8791,1.8791,0,1.8777,1.8777,1.8777,1.8791,1.8792,1.8792,1.8793,1.8777,1.8776,1.8775,0,0,0,0,0,0,0,0,0,0,0,0,0,1.8826,1.8825,1.8791,1.8791,1.8791,1.8777,1.8777,1.8777,1.8791,1.8792,1.8793,1.8793,1.8777,1.8776,1.8775,0,0,0,0,0,0,0,0,0,0,0,0,0,1.8811,1.8825,1.8791,1.8796,1.8797,1.8777,1.8777,1.8777,1.8791,1.8792,1.8793,1.8794,1.8777,1.8776,1.8774,1.8748,0,0,1.877,1.8769,0,0,0,0,0,0,0,0,1.8812,1.881,1.8796,1.8796,1.8796,1.8787,1.8783,1.8767,1.8791,1.8793,1.8793,1.8794,1.8779,1.8778,1.8773,1.8747,1.8747,1.877,1.8769,1.8768,1.8768,0,0,0,0,0,0,0,1.8813,1.8811,1.8785,1.8795,1.8796,1.8798,1.8797,1.878,1.8781,1.8793,1.8794,1.8792,1.8779,1.8774,1.8773,1.8746,1.877,1.8769,1.8768,1.8767,1.8695,1.8694,0,0,0,0,0,0,1.8814,1.8811,1.8786,1.8785,1.8806,1.8797,1.8795,1.8789,1.8782,1.8781,1.8792,1.8793,1.8776,1.8774,1.8772,1.8739,1.8768,1.8767,1.8766,1.8696,1.8695,1.8694,0,0,0,0,0,0,1.8815,1.8812,1.8786,1.8798,1.8795,1.8795,1.8788,1.8788,1.8783,1.8781,1.8781,1.8786,1.8777,1.8774,1.8753,1.8739,1.8766,1.8765,1.8697,1.8696,1.8694,1.8673,0,0,0,0,0,0,1.8816,1.8812,1.8803,1.8798,1.8795,1.8769,1.8787,1.8787,1.8781,1.8783,1.8776,1.8775,1.8777,1.8756,1.8752,1.8737,1.8764,1.8699,1.8697,1.8695,1.8675,1.8671,1.8668,0,0,0,0,0,1.8817,1.8798,1.8802,1.8799,1.8784,1.8768,1.8766,1.877,1.878,1.877,1.8768,1.8776,1.8741,1.8753,1.8749,1.8734,1.87,1.8697,1.8695,1.8677,1.8672,1.8668,0,0,0,0,0,0,1.8801,1.8797,1.8802,1.8782,1.8775,1.8771,1.8759,1.8765,1.8755,1.8757,1.876,1.8759,1.8736,1.8733,1.8747,1.8706,1.8722,1.8718,1.8709,1.8705,1.8701,1.8702,1.8763,0,0,0,0,0,1.8795,1.8783,1.8781,1.8762,1.8759,1.8759,1.8753,1.8756,1.8749,1.8746,1.8742,1.8735,1.8722,1.8713,1.8701,1.8675,1.8672,1.8662,1.8658,1.8655,1.8652,1.8635,1.863,1.8686,1.8686,1.8686,0,0,1.8782,1.8779,1.8772,1.8759,1.8754,1.8741,1.8757,1.8743,1.8732,1.8744,1.8723,1.872,1.8712,1.8687,1.8676,1.8684,1.8636,1.8652,1.865,1.8648,1.8632,1.8627,1.8622,1.8685,1.8685,1.8685,0,0,1.8752,1.875,1.8733,1.8727,1.872,1.872,1.8716,1.871,1.8709,1.8688,1.8696,1.8683,1.8661,1.8654,1.8647,1.8612,1.8617,1.8608,1.8588,1.8571,1.8566,1.8562,1.8547,1.8542,1.8605,1.8605,1.8605,0,1.8737,1.8719,1.8723,1.8708,1.8701,1.8711,1.8692,1.8687,1.8675,1.867,1.8678,1.865,1.8645,1.8617,1.8608,1.8603,1.8597,1.8608,1.8567,1.8563,1.8559,1.8545,1.854,1.8603,1.8603,1.8604,1.8604,0,1.87,1.8686,1.8673,1.8662,1.8654,1.8637,1.8637,1.8628,1.8631,1.863,1.8607,1.8601,1.8587,1.8581,1.8584,1.8553,1.8558,1.8567,1.8582,1.8552,1.8539,1.8534,1.8601,1.8602,1.8602,1.8603,0,0,1.866,1.865,1.8645,1.8639,1.8631,1.862,1.8602,1.8589,1.8579,1.8571,1.8555,1.8535,1.8542,1.8535,1.8537,1.8522,1.8491,1.8532,1.8532,1.8523,1.8454,1.8446,1.844,1.8495,1.8494,1.8493,1.8454,0,1.8629,1.8599,1.8602,1.8573,1.8559,1.8567,1.8551,1.8543,1.8541,1.8527,1.8524,1.8509,1.8521,1.8516,1.8502,1.8498,1.8477,1.8501,1.8478,1.8477,1.8479,1.8433,1.8426,1.8389,1.8449,1.8448,1.8447,0,1.8588,1.8578,1.8548,1.8539,1.8533,1.852,1.8506,1.8494,1.8484,1.8482,1.8473,1.8476,1.8456,1.8472,1.8443,1.8459,1.845,1.8446,1.8445,1.8442,1.846,1.8428,1.8377,1.8371,1.8439,1.844,1.8441,0,1.856,1.8539,1.8517,1.8512,1.8502,1.8491,1.8486,1.8477,1.8468,1.8455,1.8449,1.8434,1.8426,1.8413,1.8412,1.8424,1.8381,1.8398,1.8378,1.8378,1.8369,1.8369,1.8314,1.8365,1.8365,1.8365,1.8365,0,1.8524,1.8505,1.8504,1.8491,1.8469,1.8471,1.8448,1.8444,1.8435,1.842,1.8426,1.8411,1.841,1.8394,1.8393,1.8368,1.8364,1.8361,1.8361,1.836,1.836,1.8353,1.8355,1.8363,1.8364,1.8364,1.8364,0,1.8489,1.8488,1.8465,1.8456,1.8454,1.8438,1.843,1.8416,1.8413,1.8393,1.8388,1.8384,1.8365,1.8362,1.8341,1.8339,1.8308,1.8311,1.8312,1.8312,1.8291,1.8292,1.8229,1.822,1.8278,1.8277,1.8277,0,1.8465,1.8451,1.844,1.8431,1.8425,1.841,1.84,1.84,1.839,1.8376,1.8363,1.8345,1.833,1.8299,1.8293,1.8275,1.8277,1.8256,1.8274,1.8273,1.8274,1.8274,1.8272,1.8252,1.8251,1.8251,1.825,0,1.8423,1.8423,1.8409,1.8395,1.8383,1.8371,1.836,1.8352,1.835,1.8337,1.8318,1.8307,1.8284,1.8265,1.8247,1.824,1.8244,1.8245,1.8239,1.8237,1.8237,1.8235,1.83,1.8246,1.8246,1.8247,1.8247,1.8247,1.8392,1.8378,1.8369,1.8352,1.8344,1.8333,1.8319,1.8314,1.8298,1.828,1.8281,1.8259,1.8246,1.8223,1.8214,1.8196,1.8202,1.8194,1.8192,1.819,1.8187,1.8241,1.8193,1.8193,1.8193,1.8193,1.8193,0,1.8349,1.8342,1.8327,1.8311,1.8298,1.8304,1.8291,1.8279,1.826,1.8248,1.8233,1.821,1.8191,1.8182,1.8162,1.8149,1.815,1.8144,1.8144,1.8142,1.8183,1.8189,1.8143,1.8143,1.8143,1.8143,1.8143,1.8143,1.8324,1.8301,1.8299,1.827,1.8264,1.8243,1.8235,1.8224,1.8214,1.8188,1.8172,1.8167,1.8155,1.8134,1.8116,1.8114,1.8105,1.8098,1.8096,1.8134,1.8139,1.8144,1.815,1.8096,1.8096,1.8056,1.8056,1.8055]}]]